| time (UTC) | temp F | wind direction | speed knots | gust knots | rain 1hr in | rain 24hr in | rain mn in | humidity % | barometer mb |
| 20260508023530 | 31 | 77 | 5.2 | 5.2 | 0.00 | 0.00 | 0.00 | 76 | 989.4 |
| 20260508022629 | 31 | 76 | 4.3 | 5.2 | 0.00 | 0.00 | 0.00 | 76 | 989.4 |
| 20260508021729 | 31 | 79 | 5.2 | 6.1 | 0.00 | 0.00 | 0.00 | 76 | 989.3 |
| 20260508015929 | 32 | 90 | 4.3 | 6.1 | 0.00 | 0.00 | 0.00 | 75 | 989.2 |
| 20260508015029 | 32 | 88 | 5.2 | 7.0 | 0.00 | 0.00 | 0.00 | 74 | 989.1 |
| 20260508014129 | 32 | 84 | 5.2 | 7.0 | 0.00 | 0.00 | 0.00 | 74 | 989.2 |
| 20260508013230 | 32 | 86 | 4.3 | 5.2 | 0.00 | 0.00 | 0.00 | 73 | 989.3 |
| 20260508012329 | 33 | 77 | 4.3 | 4.3 | 0.00 | 0.00 | 0.00 | 73 | 989.2 |
| 20260508011429 | 33 | 90 | 3.5 | 4.3 | 0.00 | 0.00 | 0.00 | 73 | 989.1 |
| 20260507233530 | 36 | 68 | 4.3 | 7.0 | 0.00 | 0.00 | 0.00 | 69 | 988.4 |
| 20260507232630 | 36 | 78 | 3.5 | 5.2 | 0.00 | 0.00 | 0.00 | 69 | 988.3 |
| 20260507231729 | 36 | 79 | 3.5 | 4.3 | 0.00 | 0.00 | 0.00 | 69 | 988.3 |
| 20260507230830 | 36 | 90 | 3.5 | 3.5 | 0.00 | 0.00 | 0.00 | 69 | 988.2 |
| 20260507225929 | 36 | 75 | 3.5 | 5.2 | 0.00 | 0.00 | 0.00 | 69 | 988.1 |
| 20260507225029 | 36 | 66 | 3.5 | 4.3 | 0.00 | 0.00 | 0.00 | 69 | 988.0 |
| 20260507224130 | 37 | 55 | 4.3 | 5.2 | 0.00 | 0.00 | 0.00 | 69 | 988.0 |
| 20260507223229 | 37 | 83 | 4.3 | 6.1 | 0.00 | 0.00 | 0.00 | 69 | 987.7 |
| 20260507222330 | 37 | 90 | 4.3 | 6.1 | 0.00 | 0.00 | 0.00 | 68 | 987.7 |
| 20260507221429 | 37 | 92 | 3.5 | 5.2 | 0.00 | 0.00 | 0.00 | 67 | 987.5 |
| 20260507220529 | 38 | 90 | 3.5 | 6.1 | 0.00 | 0.00 | 0.00 | 66 | 987.6 |
| 20260507215630 | 38 | 78 | 4.3 | 6.1 | 0.00 | 0.00 | 0.00 | 65 | 987.4 |
| 20260507214729 | 39 | 64 | 3.5 | 5.2 | 0.00 | 0.00 | 0.00 | 64 | 987.6 |
| 20260507213831 | 39 | 64 | 5.2 | 6.1 | 0.00 | 0.00 | 0.00 | 62 | 987.4 |
| 20260507212930 | 40 | 55 | 4.3 | 4.3 | 0.00 | 0.00 | 0.00 | 61 | 987.3 |
| 20260507211131 | 40 | 54 | 3.5 | 3.5 | 0.00 | 0.00 | 0.00 | 57 | 987.0 |
| 20260507205331 | 41 | 73 | 3.5 | 4.3 | 0.00 | 0.00 | 0.00 | 52 | 986.7 |
| 20260507204429 | 41 | 75 | 3.5 | 5.2 | 0.00 | 0.00 | 0.00 | 50 | 986.6 |
| 20260507202629 | 42 | 44 | 3.5 | 4.3 | 0.00 | 0.00 | 0.00 | 46 | 986.5 |
| 20260507201729 | 43 | 59 | 3.5 | 4.3 | 0.00 | 0.00 | 0.00 | 43 | 986.2 |
| 20260507200831 | 44 | 71 | 2.6 | 4.3 | 0.00 | 0.00 | 0.00 | 39 | 986.1 |
| 20260507195930 | 45 | 51 | 2.6 | 5.2 | 0.00 | 0.00 | 0.00 | 35 | 986.1 |
| 20260507194129 | 48 | 38 | 2.6 | 7.0 | 0.00 | 0.00 | 0.00 | 26 | 985.9 |
| 20260507193230 | 49 | 67 | 1.7 | 3.5 | 0.00 | 0.00 | 0.00 | 23 | 985.8 |
| 20260507192330 | 49 | 119 | 0.9 | 1.7 | 0.00 | 0.00 | 0.00 | 22 | 985.5 |
| 20260507191429 | 51 | 100 | 0.9 | 2.6 | 0.00 | 0.00 | 0.00 | 21 | 985.4 |
| 20260507190529 | 53 | 121 | 0.9 | 1.7 | 0.00 | 0.00 | 0.00 | 19 | 985.1 |
| 20260507185631 | 53 | 89 | 0.9 | 1.7 | 0.00 | 0.00 | 0.00 | 18 | 985.2 |
| 20260507184729 | 55 | 31 | 1.7 | 3.5 | 0.00 | 0.00 | 0.00 | 18 | 985.1 |
| 20260507183831 | 56 | 353 | 0.9 | 1.7 | 0.00 | 0.00 | 0.00 | 17 | 985.0 |
| 20260507182930 | 56 | 352 | 1.7 | 2.6 | 0.00 | 0.00 | 0.00 | 16 | 985.0 |
| 20260507182029 | 57 | 329 | 1.7 | 1.7 | 0.00 | 0.00 | 0.00 | 15 | 984.8 |
| 20260507181129 | 57 | 316 | 1.7 | 3.5 | 0.00 | 0.00 | 0.00 | 16 | 984.7 |
| 20260507180229 | 57 | 326 | 2.6 | 4.3 | 0.00 | 0.00 | 0.00 | 16 | 984.7 |
| 20260507175330 | 56 | 313 | 5.2 | 7.0 | 0.00 | 0.00 | 0.00 | 16 | 984.7 |
| 20260507174429 | 57 | 312 | 4.3 | 5.2 | 0.00 | 0.00 | 0.00 | 16 | 984.5 |
| 20260507172630 | 58 | 307 | 2.6 | 4.3 | 0.00 | 0.00 | 0.00 | 15 | 984.5 |
| 20260507170831 | 58 | 311 | 3.5 | 7.0 | 0.00 | 0.00 | 0.00 | 14 | 984.2 |
| 20260507165930 | 58 | 287 | 4.3 | 7.0 | 0.00 | 0.00 | 0.00 | 15 | 984.3 |
| 20260507163229 | 59 | 210 | 5.2 | 7.8 | 0.00 | 0.00 | 0.00 | 14 | 984.2 |
| 20260507162331 | 59 | 267 | 5.2 | 7.8 | 0.00 | 0.00 | 0.00 | 13 | 984.0 |
| 20260507161429 | 59 | 244 | 6.1 | 7.0 | 0.00 | 0.00 | 0.00 | 14 | 984.0 |
| 20260507160530 | 58 | 229 | 6.1 | 7.8 | 0.00 | 0.00 | 0.00 | 14 | 983.9 |
| 20260507154730 | 58 | 233 | 7.0 | 9.6 | 0.00 | 0.00 | 0.00 | 14 | 983.7 |
| 20260507153831 | 59 | 242 | 4.3 | 7.0 | 0.00 | 0.00 | 0.00 | 15 | 983.8 |
| 20260507152030 | 58 | 204 | 7.0 | 13.0 | 0.00 | 0.00 | 0.00 | 14 | 983.6 |
| 20260507151129 | 58 | 308 | 5.2 | 7.0 | 0.00 | 0.00 | 0.00 | 15 | 983.6 |
| 20260507150230 | 59 | 273 | 5.2 | 7.0 | 0.00 | 0.00 | 0.00 | 15 | 983.5 |
| 20260507144430 | 58 | 270 | 6.1 | 9.6 | 0.00 | 0.00 | 0.00 | 13 | 983.4 |
| 20260507143530 | 58 | 295 | 7.0 | 9.6 | 0.00 | 0.00 | 0.00 | 15 | 983.3 |
| 20260507142631 | 57 | 247 | 7.8 | 9.6 | 0.00 | 0.00 | 0.00 | 15 | 983.4 |
| 20260507140829 | 57 | 277 | 7.8 | 9.6 | 0.00 | 0.00 | 0.00 | 13 | 983.3 |
| 20260507135930 | 57 | 300 | 7.0 | 13.0 | 0.00 | 0.00 | 0.00 | 16 | 983.3 |
| 20260507135029 | 58 | 246 | 6.1 | 9.6 | 0.00 | 0.00 | 0.00 | 14 | 983.2 |
| 20260507134129 | 58 | 289 | 6.1 | 9.6 | 0.00 | 0.00 | 0.00 | 15 | 983.3 |
| 20260507133229 | 58 | 291 | 6.1 | 9.6 | 0.00 | 0.00 | 0.00 | 16 | 983.1 |
| 20260507132329 | 57 | 269 | 7.0 | 11.3 | 0.00 | 0.00 | 0.00 | 15 | 983.0 |
| 20260507131430 | 57 | 222 | 8.7 | 11.3 | 0.00 | 0.00 | 0.00 | 17 | 983.0 |
| 20260507125631 | 58 | 277 | 6.1 | 9.6 | 0.00 | 0.00 | 0.00 | 16 | 983.2 |
| 20260507124730 | 56 | 283 | 7.8 | 11.3 | 0.00 | 0.00 | 0.00 | 15 | 983.0 |
| 20260507123831 | 56 | 242 | 8.7 | 12.2 | 0.00 | 0.00 | 0.00 | 16 | 983.0 |
| 20260507122930 | 56 | 244 | 7.8 | 12.2 | 0.00 | 0.00 | 0.00 | 16 | 983.0 |
| 20260507122030 | 56 | 274 | 6.1 | 10.4 | 0.00 | 0.00 | 0.00 | 16 | 983.0 |
| 20260507121130 | 55 | 220 | 6.1 | 7.0 | 0.00 | 0.00 | 0.00 | 17 | 983.0 |
| 20260507120230 | 55 | 229 | 7.0 | 10.4 | 0.00 | 0.00 | 0.00 | 17 | 982.8 |
| 20260507115330 | 55 | 274 | 6.1 | 11.3 | 0.00 | 0.00 | 0.00 | 17 | 982.9 |
| 20260507114430 | 54 | 270 | 7.0 | 12.2 | 0.00 | 0.00 | 0.00 | 21 | 982.8 |
| 20260507113530 | 54 | 210 | 7.8 | 11.3 | 0.00 | 0.00 | 0.00 | 19 | 982.8 |
| 20260507112630 | 54 | 304 | 7.0 | 9.6 | 0.00 | 0.00 | 0.00 | 20 | 982.9 |
| 20260507111730 | 54 | 233 | 8.7 | 11.3 | 0.00 | 0.00 | 0.00 | 21 | 982.8 |
| 20260507110831 | 54 | 218 | 7.8 | 11.3 | 0.00 | 0.00 | 0.00 | 19 | 982.7 |
| 20260507105030 | 54 | 210 | 7.0 | 9.6 | 0.00 | 0.00 | 0.00 | 20 | 982.6 |
| 20260507103229 | 54 | 259 | 5.2 | 9.6 | 0.00 | 0.00 | 0.00 | 21 | 982.6 |
| 20260507102331 | 53 | 217 | 7.0 | 9.6 | 0.00 | 0.00 | 0.00 | 24 | 982.6 |
| 20260507101430 | 53 | 284 | 6.1 | 9.6 | 0.00 | 0.00 | 0.00 | 22 | 982.6 |
| 20260507100530 | 53 | 282 | 7.8 | 9.6 | 0.00 | 0.00 | 0.00 | 23 | 982.5 |
| 20260507095629 | 52 | 272 | 7.0 | 9.6 | 0.00 | 0.00 | 0.00 | 23 | 982.5 |
| 20260507093831 | 52 | 259 | 7.0 | 9.6 | 0.00 | 0.00 | 0.00 | 27 | 982.3 |
| 20260507091130 | 51 | 294 | 6.1 | 8.7 | 0.00 | 0.00 | 0.00 | 27 | 982.5 |
| 20260507090230 | 52 | 292 | 4.3 | 8.7 | 0.00 | 0.00 | 0.00 | 28 | 982.3 |
| 20260507085330 | 52 | 267 | 3.5 | 7.0 | 0.00 | 0.00 | 0.00 | 29 | 982.3 |
| 20260507084448 | 52 | 188 | 4.3 | 7.0 | 0.00 | 0.00 | 0.00 | 27 | 982.5 |
| 20260507083530 | 51 | 287 | 4.3 | 7.0 | 0.00 | 0.00 | 0.00 | 30 | 982.5 |
| 20260507082635 | 51 | 257 | 4.3 | 8.7 | 0.00 | 0.00 | 0.00 | 31 | 982.4 |
| 20260507075930 | 51 | 315 | 2.6 | 6.1 | 0.00 | 0.00 | 0.00 | 36 | 982.1 |
| 20260507075030 | 50 | 288 | 2.6 | 4.3 | 0.00 | 0.00 | 0.00 | 37 | 982.1 |
| 20260507074130 | 51 | 245 | 3.5 | 4.3 | 0.00 | 0.00 | 0.00 | 38 | 982.0 |
| 20260507073230 | 50 | 298 | 4.3 | 6.1 | 0.00 | 0.00 | 0.00 | 40 | 982.1 |
| 20260507071430 | 50 | 319 | 2.6 | 5.2 | 0.00 | 0.00 | 0.00 | 38 | 982.1 |
| 20260507070530 | 51 | 8 | 1.7 | 4.3 | 0.00 | 0.00 | 0.00 | 39 | 981.9 |
| 20260507065630 | 51 | 38 | 1.7 | 3.5 | 0.00 | 0.00 | 0.00 | 39 | 982.1 |
| 20260507063830 | 51 | 321 | 2.6 | 3.5 | 0.00 | 0.00 | 0.00 | 40 | 981.9 |
| 20260507062930 | 51 | 18 | 1.7 | 1.7 | 0.00 | 0.00 | 0.00 | 41 | 981.7 |
| 20260507062030 | 49 | 30 | 1.7 | 3.5 | 0.00 | 0.00 | 0.00 | 42 | 981.7 |
| 20260507061130 | 50 | 50 | 1.7 | 1.7 | 0.00 | 0.00 | 0.00 | 43 | 981.7 |
| 20260507060230 | 47 | 54 | 1.7 | 2.6 | 0.00 | 0.00 | 0.00 | 46 | 981.6 |
| 20260507055330 | 46 | 30 | 1.7 | 1.7 | 0.00 | 0.00 | 0.00 | 47 | 981.5 |
| 20260507054431 | 44 | 49 | 1.7 | 3.5 | 0.00 | 0.00 | 0.00 | 49 | 981.4 |
| 20260507053530 | 43 | 33 | 2.6 | 3.5 | 0.00 | 0.00 | 0.00 | 51 | 981.5 |
| 20260507052631 | 41 | 39 | 3.5 | 3.5 | 0.00 | 0.00 | 0.00 | 52 | 981.4 |
| 20260507051730 | 40 | 40 | 3.5 | 4.3 | 0.00 | 0.00 | 0.00 | 52 | 981.5 |
| 20260507050831 | 39 | 10 | 3.5 | 4.3 | 0.00 | 0.00 | 0.00 | 52 | 981.4 |
| 20260507045930 | 40 | 65 | 2.6 | 3.5 | 0.00 | 0.00 | 0.00 | 51 | 981.3 |
| 20260507044130 | 39 | 101 | 2.6 | 3.5 | 0.00 | 0.00 | 0.00 | 53 | 981.0 |
| 20260507043230 | 37 | 61 | 3.5 | 3.5 | 0.00 | 0.00 | 0.00 | 56 | 981.0 |
| 20260507042331 | 37 | 65 | 3.5 | 5.2 | 0.00 | 0.00 | 0.00 | 56 | 980.9 |
| 20260507041430 | 37 | 66 | 3.5 | 3.5 | 0.00 | 0.00 | 0.00 | 56 | 981.0 |
| 20260507040530 | 36 | 90 | 4.3 | 4.3 | 0.00 | 0.00 | 0.00 | 58 | 980.8 |
| 20260507035630 | 36 | 86 | 3.5 | 4.3 | 0.00 | 0.00 | 0.00 | 58 | 980.9 |
| 20260507034730 | 35 | 93 | 3.5 | 4.3 | 0.00 | 0.00 | 0.00 | 59 | 980.7 |
| 20260507032030 | 33 | 93 | 3.5 | 4.3 | 0.00 | 0.00 | 0.00 | 65 | 980.5 |
| 20260507031131 | 32 | 120 | 3.5 | 3.5 | 0.00 | 0.00 | 0.00 | 66 | 980.5 |
| 20260507030230 | 31 | 119 | 3.5 | 3.5 | 0.00 | 0.00 | 0.00 | 68 | 980.5 |
| 20260507025331 | 31 | 121 | 2.6 | 3.5 | 0.00 | 0.00 | 0.00 | 69 | 980.4 |
| 20260507024431 | 31 | 102 | 2.6 | 3.5 | 0.00 | 0.00 | 0.00 | 68 | 980.4 |